(°C)
10°
10°
10°
10°
10°
(°C)
ZO
ZO
OZO
O
O
O
O
(km/u)
18-28
18-28
17-27
15-26
15-25
15-26
14-27
(mm)
0
0
0
0.8
1
0
0
(%)
1
8
41
73
66
50
37

Zonverhoging

/ 48.9°
sun-icon
UV 3
04:29
21:11
Afnemende maan (279°)
02:54
12:20

METAR voor 55.31°N 61.5°O (USCC)

Tijd Voorwaarden Temperatuur/
Dauwpunt
Wind Zicht Weer Wolken Luchtdruk Wijzigen Ruw
VFR 9°C / 3°C 160º 10kt >10km - Scattered Clouds 4000ft 1002 No Significant change USCC 230530Z 16005MPS 9999 SCT040 09/03 Q1002 R09/000060 NOSIG RMK QFE731
VFR 9°C / 3°C 170º 12kt >10km - Few Clouds 4000ft 1002 No Significant change USCC 230500Z 17006MPS 9999 FEW040 09/03 Q1002 R27/000060 NOSIG RMK QFE731
VFR 8°C / 3°C 170º 12kt >10km - Few Clouds 4000ft 1002 No Significant change USCC 230430Z 17006MPS 9999 FEW040 08/03 Q1002 R27/000060 NOSIG RMK QFE731
VFR 8°C / 3°C 150º 12kt >10km - Few Clouds 4000ft 1002 No Significant change USCC 230400Z 15006MPS 9999 FEW040 08/03 Q1002 R27/000060 NOSIG RMK QFE731
VFR 9°C / 3°C 140º 6kt >10km - Few Clouds 4000ft 1002 No Significant change USCC 230330Z 14003MPS 9999 FEW040 09/03 Q1002 R27/000060 NOSIG RMK QFE731
VFR 7°C / 3°C 140º 4kt >10km - Few Clouds 4000ft 1002 No Significant change USCC 230300Z 14002MPS 9999 FEW040 07/03 Q1002 R27/000060 NOSIG RMK QFE731
VFR 6°C / 3°C 120º 4kt >10km - Few Clouds 4000ft 1002 No Significant change USCC 230230Z 12002MPS 9999 FEW040 06/03 Q1002 R27/000060 NOSIG RMK QFE731
VFR 6°C / 2°C 130º variable 070º to 180º 4kt >10km - Few Clouds 4000ft 1002 No Significant change USCC 230200Z 13002MPS 070V180 9999 FEW040 06/02 Q1002 R27/000060 NOSIG RMK QFE732
VFR 5°C / 2°C 140º 2kt >10km - Few Clouds 4000ft 1002 No Significant change USCC 230130Z 14001MPS 9999 FEW040 05/02 Q1002 R27/000060 NOSIG RMK QFE732
VFR 4°C / 1°C 140º variable 120º to 190º 4kt >10km - Few Clouds 4000ft 1002 No Significant change USCC 230100Z 14002MPS 120V190 9999 FEW040 04/01 Q1002 R27/000060 NOSIG RMK QFE731
VFR 3°C / 1°C 180º 4kt >10km - Clouds and Visibility OK 1002 No Significant change USCC 230030Z 18002MPS CAVOK 03/01 Q1002 R27/000060 NOSIG RMK QFE731
VFR 3°C / 1°C 190º 6kt >10km - Clouds and Visibility OK 1001 No Significant change USCC 230000Z 19003MPS CAVOK 03/01 Q1001 R27/000060 NOSIG RMK QFE731
VFR 3°C / 0°C 190º 6kt >10km - Clouds and Visibility OK 1001 No Significant change USCC 222330Z 19003MPS CAVOK 03/00 Q1001 R27/000060 NOSIG RMK QFE731
VFR 2°C / 1°C 160º 6kt >10km - Clouds and Visibility OK 1001 No Significant change USCC 222300Z 16003MPS CAVOK 02/01 Q1001 R27/000060 NOSIG RMK QFE731
VFR 3°C / 0°C 170º 4kt >10km - Clouds and Visibility OK 1001 No Significant change USCC 222230Z 17002MPS CAVOK 03/00 Q1001 R27/000060 NOSIG RMK QFE731
VFR 3°C / 0°C 170º 6kt >10km - Few Clouds 4000ft 1001 No Significant change USCC 222200Z 17003MPS 9999 FEW040 03/00 Q1001 R27/000060 NOSIG RMK QFE731
VFR 3°C / 0°C 160º 4kt >10km - Few Clouds 4000ft 1001 No Significant change USCC 222130Z 16002MPS 9999 FEW040CB 03/00 Q1001 R27/000060 NOSIG RMK QFE731
VFR 5°C / 1°C 210º 6kt >10km - Few Clouds 4000ft 1001 No Significant change USCC 222100Z 21003MPS 9999 FEW040CB 05/01 Q1001 R27/000060 NOSIG RMK QFE731
VFR 5°C / 0°C 200º 6kt >10km - Few Clouds 4000ft 1001 No Significant change USCC 222030Z 20003MPS 9999 FEW040CB 05/00 Q1001 R27/000060 NOSIG RMK QFE731
VFR 5°C / 1°C 220º 8kt >10km - Few Clouds 4000ft 1001 No Significant change USCC 222000Z 22004MPS 9999 FEW040CB 05/01 Q1001 R27/000060 NOSIG RMK QFE731
VFR 5°C / 1°C 200º 6kt >10km - Few Clouds 4000ft 1001 No Significant change USCC 221930Z 20003MPS 9999 FEW040CB 05/01 Q1001 R27/000060 NOSIG RMK QFE731
VFR 5°C / 1°C 210º 6kt >10km - Few Clouds 4000ft 1001 No Significant change USCC 221900Z 21003MPS 9999 FEW040CB 05/01 Q1001 R27/000060 NOSIG RMK QFE731
VFR 5°C / 1°C 210º 6kt >10km - Scattered Clouds 4000ft 1001 No Significant change USCC 221830Z 21003MPS 9999 SCT040CB 05/01 Q1001 R27/000060 NOSIG RMK QFE731
VFR 6°C / 1°C 240º 8kt >10km - Scattered Clouds 4000ft 1001 No Significant change USCC 221800Z 24004MPS 9999 SCT040CB 06/01 Q1001 R27/000060 NOSIG RMK QFE731

VFR

9°C / 3°C

[Meer]
Wind 160º 10kt
Zicht >10km
Weer -
Wolken Scattered Clouds 4000ft
Luchtdruk 1002
Wijzigen No Significant change
Ruw USCC 230530Z 16005MPS 9999 SCT040 09/03 Q1002 R09/000060 NOSIG RMK QFE731

VFR

9°C / 3°C

[Meer]
Wind 170º 12kt
Zicht >10km
Weer -
Wolken Few Clouds 4000ft
Luchtdruk 1002
Wijzigen No Significant change
Ruw USCC 230500Z 17006MPS 9999 FEW040 09/03 Q1002 R27/000060 NOSIG RMK QFE731

VFR

8°C / 3°C

[Meer]
Wind 170º 12kt
Zicht >10km
Weer -
Wolken Few Clouds 4000ft
Luchtdruk 1002
Wijzigen No Significant change
Ruw USCC 230430Z 17006MPS 9999 FEW040 08/03 Q1002 R27/000060 NOSIG RMK QFE731

VFR

8°C / 3°C

[Meer]
Wind 150º 12kt
Zicht >10km
Weer -
Wolken Few Clouds 4000ft
Luchtdruk 1002
Wijzigen No Significant change
Ruw USCC 230400Z 15006MPS 9999 FEW040 08/03 Q1002 R27/000060 NOSIG RMK QFE731

VFR

9°C / 3°C

[Meer]
Wind 140º 6kt
Zicht >10km
Weer -
Wolken Few Clouds 4000ft
Luchtdruk 1002
Wijzigen No Significant change
Ruw USCC 230330Z 14003MPS 9999 FEW040 09/03 Q1002 R27/000060 NOSIG RMK QFE731

VFR

7°C / 3°C

[Meer]
Wind 140º 4kt
Zicht >10km
Weer -
Wolken Few Clouds 4000ft
Luchtdruk 1002
Wijzigen No Significant change
Ruw USCC 230300Z 14002MPS 9999 FEW040 07/03 Q1002 R27/000060 NOSIG RMK QFE731

VFR

6°C / 3°C

[Meer]
Wind 120º 4kt
Zicht >10km
Weer -
Wolken Few Clouds 4000ft
Luchtdruk 1002
Wijzigen No Significant change
Ruw USCC 230230Z 12002MPS 9999 FEW040 06/03 Q1002 R27/000060 NOSIG RMK QFE731

VFR

6°C / 2°C

[Meer]
Wind 130º variable 070º to 180º 4kt
Zicht >10km
Weer -
Wolken Few Clouds 4000ft
Luchtdruk 1002
Wijzigen No Significant change
Ruw USCC 230200Z 13002MPS 070V180 9999 FEW040 06/02 Q1002 R27/000060 NOSIG RMK QFE732

VFR

5°C / 2°C

[Meer]
Wind 140º 2kt
Zicht >10km
Weer -
Wolken Few Clouds 4000ft
Luchtdruk 1002
Wijzigen No Significant change
Ruw USCC 230130Z 14001MPS 9999 FEW040 05/02 Q1002 R27/000060 NOSIG RMK QFE732

VFR

4°C / 1°C

[Meer]
Wind 140º variable 120º to 190º 4kt
Zicht >10km
Weer -
Wolken Few Clouds 4000ft
Luchtdruk 1002
Wijzigen No Significant change
Ruw USCC 230100Z 14002MPS 120V190 9999 FEW040 04/01 Q1002 R27/000060 NOSIG RMK QFE731

VFR

3°C / 1°C

[Meer]
Wind 180º 4kt
Zicht >10km
Weer -
Wolken Clouds and Visibility OK
Luchtdruk 1002
Wijzigen No Significant change
Ruw USCC 230030Z 18002MPS CAVOK 03/01 Q1002 R27/000060 NOSIG RMK QFE731

VFR

3°C / 1°C

[Meer]
Wind 190º 6kt
Zicht >10km
Weer -
Wolken Clouds and Visibility OK
Luchtdruk 1001
Wijzigen No Significant change
Ruw USCC 230000Z 19003MPS CAVOK 03/01 Q1001 R27/000060 NOSIG RMK QFE731

VFR

3°C / 0°C

[Meer]
Wind 190º 6kt
Zicht >10km
Weer -
Wolken Clouds and Visibility OK
Luchtdruk 1001
Wijzigen No Significant change
Ruw USCC 222330Z 19003MPS CAVOK 03/00 Q1001 R27/000060 NOSIG RMK QFE731

VFR

2°C / 1°C

[Meer]
Wind 160º 6kt
Zicht >10km
Weer -
Wolken Clouds and Visibility OK
Luchtdruk 1001
Wijzigen No Significant change
Ruw USCC 222300Z 16003MPS CAVOK 02/01 Q1001 R27/000060 NOSIG RMK QFE731

VFR

3°C / 0°C

[Meer]
Wind 170º 4kt
Zicht >10km
Weer -
Wolken Clouds and Visibility OK
Luchtdruk 1001
Wijzigen No Significant change
Ruw USCC 222230Z 17002MPS CAVOK 03/00 Q1001 R27/000060 NOSIG RMK QFE731

VFR

3°C / 0°C

[Meer]
Wind 170º 6kt
Zicht >10km
Weer -
Wolken Few Clouds 4000ft
Luchtdruk 1001
Wijzigen No Significant change
Ruw USCC 222200Z 17003MPS 9999 FEW040 03/00 Q1001 R27/000060 NOSIG RMK QFE731

VFR

3°C / 0°C

[Meer]
Wind 160º 4kt
Zicht >10km
Weer -
Wolken Few Clouds 4000ft
Luchtdruk 1001
Wijzigen No Significant change
Ruw USCC 222130Z 16002MPS 9999 FEW040CB 03/00 Q1001 R27/000060 NOSIG RMK QFE731

VFR

5°C / 1°C

[Meer]
Wind 210º 6kt
Zicht >10km
Weer -
Wolken Few Clouds 4000ft
Luchtdruk 1001
Wijzigen No Significant change
Ruw USCC 222100Z 21003MPS 9999 FEW040CB 05/01 Q1001 R27/000060 NOSIG RMK QFE731

VFR

5°C / 0°C

[Meer]
Wind 200º 6kt
Zicht >10km
Weer -
Wolken Few Clouds 4000ft
Luchtdruk 1001
Wijzigen No Significant change
Ruw USCC 222030Z 20003MPS 9999 FEW040CB 05/00 Q1001 R27/000060 NOSIG RMK QFE731

VFR

5°C / 1°C

[Meer]
Wind 220º 8kt
Zicht >10km
Weer -
Wolken Few Clouds 4000ft
Luchtdruk 1001
Wijzigen No Significant change
Ruw USCC 222000Z 22004MPS 9999 FEW040CB 05/01 Q1001 R27/000060 NOSIG RMK QFE731

VFR

5°C / 1°C

[Meer]
Wind 200º 6kt
Zicht >10km
Weer -
Wolken Few Clouds 4000ft
Luchtdruk 1001
Wijzigen No Significant change
Ruw USCC 221930Z 20003MPS 9999 FEW040CB 05/01 Q1001 R27/000060 NOSIG RMK QFE731

VFR

5°C / 1°C

[Meer]
Wind 210º 6kt
Zicht >10km
Weer -
Wolken Few Clouds 4000ft
Luchtdruk 1001
Wijzigen No Significant change
Ruw USCC 221900Z 21003MPS 9999 FEW040CB 05/01 Q1001 R27/000060 NOSIG RMK QFE731

VFR

5°C / 1°C

[Meer]
Wind 210º 6kt
Zicht >10km
Weer -
Wolken Scattered Clouds 4000ft
Luchtdruk 1001
Wijzigen No Significant change
Ruw USCC 221830Z 21003MPS 9999 SCT040CB 05/01 Q1001 R27/000060 NOSIG RMK QFE731

VFR

6°C / 1°C

[Meer]
Wind 240º 8kt
Zicht >10km
Weer -
Wolken Scattered Clouds 4000ft
Luchtdruk 1001
Wijzigen No Significant change
Ruw USCC 221800Z 24004MPS 9999 SCT040CB 06/01 Q1001 R27/000060 NOSIG RMK QFE731

TAF voor 55.31°N 61.5°O (USCC)

From till


From till Wind 160º 6kt. Gust 21kt. Visibility 6000m. Broken Clouds 1600ft.
Temporarly from till Wind 120º 16kt. Gust 27kt. Visibility 3000m. Light Showers Rain Mist . Broken Clouds 1100ft.

Ruw: TAF USCC 230458Z 2306/2406 16003G11MPS 6000 BKN016CB TEMPO 2306/2406 12008G14MPS 3000 -SHRA BR BKN011CB

Radar en neerslag nowcast voor 55.31°N 61.5°O

Motregen
Licht
Matig
Zwaar
Zeer zwaar
Hagel

De locatiemarkering is op 55.31°N 61.5°O geplaatst . Deze animation toont de neerslag radar van het afgelopen uur, maar ook de 1h verwachting. Motregen of lichte sneeuwval kan onzichtbaar zijn voor de radar. De neerslagintensiteit wordt met kleuren weergegeven, van lichtblauw tot oranje.

Huidige satelliet- en regenbeelden voor 55.31°N 61.5°O

De locatiemarkering is op 55.31°N 61.5°O geplaatst. [Meer]

Het realtime satellietbeeld combineert zichtbaar licht overdag met infraroodstraling 's nachts. 's Nachts is het beeld niet donker, omdat infraroodstraling temperatuurverschillen kan waarnemen. Helaas zijn lage wolken en mist moeilijk te onderscheiden van grondtemperaturen en kunnen dus 's nachts bijna onzichtbaar zijn. Meteosat-satellietbeelden voor Europa worden elke 5 minuten in real time bijgewerkt. De beelden van GOES-16/GOES-17 (Noord- en Zuid-Amerika) en Himawari (Azië) worden om de 10 minuten bijgewerkt.

Copyright 2022 EUMETSAT / meteoblue. / Copyright 2022 meteoblue

Terug naar boven